| time (UTC) | temp F | wind direction | speed knots | gust knots | rain 1hr in | rain 24hr in | rain mn in | humidity % | barometer mb |
| 20260502183226 | 48 | 0 | 0.0 | 0.0 | 0.00 | 0.00 | 0.00 | 56 | 1015.3 |
| 20260502182721 | 48 | 255 | 3.5 | 3.5 | 0.00 | 0.00 | 0.00 | 56 | 1015.6 |
| 20260502182212 | 49 | 289 | 3.5 | 5.2 | 0.00 | 0.00 | 0.00 | 54 | 1015.5 |
| 20260502181709 | 48 | 248 | 0.9 | 1.7 | 0.00 | 0.00 | 0.00 | 52 | 1015.5 |
| 20260502181208 | 48 | 10 | 0.9 | 5.2 | 0.00 | 0.00 | 0.00 | 51 | 1015.6 |
| 20260502180704 | 49 | 256 | 7.0 | 7.8 | 0.00 | 0.00 | 0.00 | 53 | 1015.7 |
| 20260502180201 | 50 | 254 | 4.3 | 6.1 | 0.00 | 0.00 | 0.00 | 51 | 1015.7 |
| 20260502170125 | 48 | 343 | 1.7 | 1.7 | 0.00 | 0.00 | 0.00 | 56 | 1016.0 |
| 20260502164112 | 52 | 13 | 1.7 | 2.6 | 0.00 | 0.00 | 0.00 | 52 | 1016.0 |
| 20260502163608 | 51 | 139 | 1.7 | 2.6 | 0.00 | 0.00 | 0.00 | 56 | 1016.0 |
| 20260502163105 | 49 | 137 | 0.9 | 0.9 | 0.00 | 0.00 | 0.00 | 56 | 1016.1 |
| 20260502162602 | 47 | 336 | 0.9 | 1.7 | 0.00 | 0.00 | 0.00 | 58 | 1016.4 |
| 20260502162059 | 48 | 59 | 0.9 | 1.7 | 0.00 | 0.00 | 0.00 | 56 | 1016.3 |
| 20260502161556 | 48 | 80 | 0.9 | 1.7 | 0.00 | 0.00 | 0.00 | 57 | 1016.5 |
| 20260502161053 | 48 | 277 | 1.7 | 2.6 | 0.00 | 0.00 | 0.00 | 56 | 1016.4 |
| 20260502160551 | 48 | 263 | 3.5 | 3.5 | 0.00 | 0.00 | 0.00 | 54 | 1016.3 |
| 20260502152004 | 49 | 228 | 1.7 | 2.6 | 0.00 | 0.00 | 0.00 | 56 | 1016.2 |
| 20260502151500 | 48 | 268 | 4.3 | 7.0 | 0.00 | 0.00 | 0.00 | 54 | 1016.5 |
| 20260502150958 | 48 | 51 | 0.0 | 0.0 | 0.00 | 0.00 | 0.00 | 55 | 1016.5 |
| 20260502150455 | 48 | 230 | 2.6 | 2.6 | 0.00 | 0.00 | 0.00 | 57 | 1016.4 |
| 20260502130341 | 44 | 260 | 1.7 | 1.7 | 0.00 | 0.00 | 0.00 | 75 | 1016.4 |
| 20260502123323 | 43 | 64 | 0.0 | 0.0 | 0.00 | 0.00 | 0.00 | 78 | 1016.1 |
| 20260502122820 | 43 | 114 | 0.0 | 0.0 | 0.00 | 0.00 | 0.00 | 80 | 1016.2 |
| 20260502122316 | 42 | 104 | 0.0 | 0.0 | 0.00 | 0.00 | 0.00 | 81 | 1016.2 |
| 20260502121815 | 40 | 86 | 0.0 | 0.0 | 0.00 | 0.00 | 0.00 | 89 | 1016.1 |
| 20260502121312 | 39 | 103 | 0.0 | 0.0 | 0.00 | 0.00 | 0.00 | 89 | 1016.1 |
| 20260502120809 | 39 | 93 | 0.0 | 0.0 | 0.00 | 0.00 | 0.00 | 91 | 1016.1 |
| 20260502120305 | 39 | 92 | 0.0 | 0.0 | 0.00 | 0.00 | 0.00 | 91 | 1015.8 |
| 20260502115803 | 38 | 86 | 0.0 | 0.0 | 0.00 | 0.00 | 0.00 | 92 | 1016.0 |
| 20260502115300 | 38 | 84 | 0.0 | 0.0 | 0.00 | 0.00 | 0.00 | 93 | 1016.0 |
| 20260502114755 | 38 | 86 | 0.0 | 0.0 | 0.00 | 0.00 | 0.00 | 93 | 1015.8 |
| 20260502114247 | 37 | 86 | 0.0 | 0.0 | 0.00 | 0.00 | 0.00 | 94 | 1016.1 |
| 20260502113744 | 37 | 82 | 0.0 | 0.0 | 0.00 | 0.00 | 0.00 | 94 | 1016.2 |
| 20260502113242 | 37 | 73 | 0.0 | 0.0 | 0.00 | 0.00 | 0.00 | 95 | 1016.1 |
| 20260502112740 | 36 | 90 | 0.0 | 0.0 | 0.00 | 0.00 | 0.00 | 95 | 1015.7 |
| 20260502112237 | 36 | 69 | 0.0 | 0.0 | 0.00 | 0.00 | 0.00 | 95 | 1015.6 |
| 20260502111734 | 36 | 69 | 0.0 | 0.0 | 0.00 | 0.00 | 0.00 | 95 | 1016.0 |
| 20260502111232 | 35 | 89 | 0.0 | 0.0 | 0.00 | 0.00 | 0.00 | 95 | 1015.8 |
| 20260502110729 | 35 | 89 | 0.0 | 0.0 | 0.00 | 0.00 | 0.00 | 95 | 1015.8 |
| 20260502110227 | 35 | 94 | 0.0 | 0.0 | 0.00 | 0.00 | 0.00 | 95 | 1015.8 |
| 20260502105725 | 35 | 87 | 0.0 | 0.0 | 0.00 | 0.00 | 0.00 | 95 | 1015.7 |
| 20260502105221 | 35 | 73 | 0.0 | 0.0 | 0.00 | 0.00 | 0.00 | 95 | 1015.7 |
| 20260502104719 | 35 | 90 | 0.0 | 0.0 | 0.00 | 0.00 | 0.00 | 95 | 1015.6 |
| 20260502104216 | 35 | 74 | 0.0 | 0.0 | 0.00 | 0.00 | 0.00 | 95 | 1015.5 |
| 20260502103713 | 35 | 91 | 0.0 | 0.0 | 0.00 | 0.00 | 0.00 | 95 | 1015.8 |
| 20260502103211 | 35 | 92 | 0.0 | 0.0 | 0.00 | 0.00 | 0.00 | 95 | 1015.7 |
| 20260502102708 | 35 | 89 | 0.0 | 0.0 | 0.00 | 0.00 | 0.00 | 95 | 1015.6 |
| 20260502102204 | 35 | 81 | 0.0 | 0.0 | 0.00 | 0.00 | 0.00 | 95 | 1016.0 |
| 20260502101703 | 35 | 81 | 0.0 | 0.0 | 0.00 | 0.00 | 0.00 | 95 | 1016.3 |
| 20260502101201 | 35 | 89 | 0.0 | 0.0 | 0.00 | 0.00 | 0.00 | 94 | 1016.1 |
| 20260502100658 | 35 | 71 | 0.0 | 0.0 | 0.00 | 0.00 | 0.00 | 94 | 1015.7 |
| 20260502100156 | 35 | 71 | 0.0 | 0.0 | 0.00 | 0.00 | 0.00 | 94 | 1015.7 |
| 20260502091130 | 36 | 75 | 0.0 | 0.0 | 0.00 | 0.00 | 0.00 | 93 | 1016.1 |
| 20260502090627 | 36 | 82 | 0.0 | 0.0 | 0.00 | 0.00 | 0.00 | 93 | 1016.2 |
| 20260502090125 | 36 | 81 | 0.0 | 0.0 | 0.00 | 0.00 | 0.00 | 93 | 1016.1 |
| 20260502071516 | 39 | 57 | 0.0 | 0.0 | 0.00 | 0.00 | 0.00 | 85 | 1016.2 |
| 20260502071014 | 39 | 57 | 0.0 | 0.0 | 0.00 | 0.00 | 0.00 | 86 | 1016.1 |
| 20260502070512 | 39 | 66 | 0.0 | 0.0 | 0.00 | 0.00 | 0.00 | 86 | 1016.1 |
| 20260502070010 | 40 | 91 | 0.0 | 0.0 | 0.00 | 0.00 | 0.00 | 86 | 1016.1 |
| 20260502065508 | 40 | 76 | 0.0 | 0.0 | 0.00 | 0.00 | 0.00 | 84 | 1016.1 |
| 20260502065006 | 40 | 75 | 0.0 | 0.0 | 0.00 | 0.00 | 0.00 | 84 | 1016.1 |
| 20260502064504 | 40 | 66 | 0.0 | 0.0 | 0.00 | 0.00 | 0.00 | 84 | 1016.0 |
| 20260502064000 | 40 | 69 | 0.0 | 0.0 | 0.00 | 0.00 | 0.00 | 84 | 1016.0 |
| 20260502063459 | 40 | 92 | 0.0 | 0.0 | 0.00 | 0.00 | 0.00 | 85 | 1016.1 |
| 20260502062956 | 40 | 82 | 0.0 | 0.0 | 0.00 | 0.00 | 0.00 | 83 | 1016.2 |
| 20260502062452 | 39 | 63 | 0.0 | 0.0 | 0.00 | 0.00 | 0.00 | 84 | 1016.1 |
| 20260502061951 | 39 | 69 | 0.0 | 0.0 | 0.00 | 0.00 | 0.00 | 84 | 1016.2 |
| 20260502061449 | 39 | 72 | 0.0 | 0.0 | 0.00 | 0.00 | 0.00 | 84 | 1016.3 |
| 20260502060944 | 40 | 74 | 0.0 | 0.0 | 0.00 | 0.00 | 0.00 | 84 | 1016.4 |
| 20260502060439 | 40 | 75 | 0.0 | 0.0 | 0.00 | 0.00 | 0.00 | 84 | 1016.4 |
| 20260502055936 | 40 | 71 | 0.0 | 0.0 | 0.00 | 0.00 | 0.00 | 84 | 1016.1 |
| 20260502055434 | 40 | 73 | 0.0 | 0.0 | 0.00 | 0.00 | 0.00 | 83 | 1016.1 |
| 20260502054929 | 40 | 73 | 0.0 | 0.0 | 0.00 | 0.00 | 0.00 | 83 | 1016.2 |
| 20260502054427 | 41 | 74 | 0.0 | 0.0 | 0.00 | 0.00 | 0.00 | 82 | 1016.3 |
| 20260502053924 | 41 | 73 | 0.0 | 0.0 | 0.00 | 0.00 | 0.00 | 82 | 1016.2 |
| 20260502053421 | 41 | 71 | 0.0 | 0.0 | 0.00 | 0.00 | 0.00 | 81 | 1016.3 |
| 20260502052918 | 42 | 69 | 0.0 | 0.0 | 0.00 | 0.00 | 0.00 | 80 | 1016.4 |
| 20260502052416 | 42 | 73 | 0.0 | 0.0 | 0.00 | 0.00 | 0.00 | 79 | 1016.5 |
| 20260502051914 | 42 | 61 | 0.9 | 0.9 | 0.00 | 0.00 | 0.00 | 75 | 1016.4 |
| 20260502051412 | 42 | 100 | 0.0 | 0.9 | 0.00 | 0.00 | 0.00 | 75 | 1016.4 |
| 20260502050909 | 43 | 106 | 0.0 | 0.9 | 0.00 | 0.00 | 0.00 | 76 | 1016.4 |
| 20260502050405 | 43 | 74 | 0.0 | 0.0 | 0.00 | 0.00 | 0.00 | 72 | 1016.3 |
| 20260502045903 | 44 | 118 | 0.9 | 0.9 | 0.00 | 0.00 | 0.00 | 73 | 1016.4 |
| 20260502045359 | 44 | 79 | 0.0 | 0.0 | 0.00 | 0.00 | 0.00 | 72 | 1016.3 |
| 20260502044856 | 44 | 102 | 0.0 | 0.0 | 0.00 | 0.00 | 0.00 | 73 | 1016.5 |
| 20260502044352 | 45 | 99 | 0.0 | 0.0 | 0.00 | 0.00 | 0.00 | 70 | 1016.5 |
| 20260502043849 | 45 | 302 | 1.7 | 1.7 | 0.00 | 0.00 | 0.00 | 69 | 1016.6 |
| 20260502043347 | 45 | 320 | 1.7 | 2.6 | 0.00 | 0.00 | 0.00 | 69 | 1016.7 |
| 20260502042846 | 45 | 68 | 0.0 | 0.9 | 0.00 | 0.00 | 0.00 | 69 | 1016.7 |
| 20260502042343 | 46 | 62 | 1.7 | 2.6 | 0.00 | 0.00 | 0.00 | 72 | 1016.8 |
| 20260502041840 | 46 | 169 | 0.9 | 0.9 | 0.00 | 0.00 | 0.00 | 73 | 1016.6 |
| 20260502041337 | 46 | 45 | 0.9 | 0.9 | 0.00 | 0.00 | 0.00 | 72 | 1016.5 |
| 20260502040835 | 46 | 90 | 0.0 | 0.9 | 0.00 | 0.00 | 0.00 | 75 | 1016.5 |
| 20260502040332 | 46 | 93 | 0.0 | 0.0 | 0.00 | 0.00 | 0.00 | 76 | 1016.5 |
| 20260502035827 | 46 | 83 | 0.0 | 0.0 | 0.00 | 0.00 | 0.00 | 77 | 1016.5 |
| 20260502035325 | 46 | 107 | 0.0 | 0.0 | 0.00 | 0.00 | 0.00 | 75 | 1016.6 |
| 20260502034822 | 46 | 250 | 0.9 | 0.9 | 0.00 | 0.00 | 0.00 | 76 | 1016.4 |
| 20260502034320 | 46 | 154 | 1.7 | 1.7 | 0.00 | 0.00 | 0.00 | 76 | 1016.4 |
| 20260502033818 | 46 | 160 | 0.9 | 0.9 | 0.00 | 0.00 | 0.00 | 76 | 1016.5 |
| 20260502033316 | 47 | 154 | 3.5 | 5.2 | 0.00 | 0.00 | 0.00 | 77 | 1016.4 |
| 20260502032812 | 47 | 154 | 0.0 | 0.9 | 0.00 | 0.00 | 0.00 | 78 | 1016.3 |
| 20260502032308 | 47 | 80 | 0.0 | 0.0 | 0.00 | 0.00 | 0.00 | 77 | 1016.5 |
| 20260502031806 | 47 | 128 | 0.9 | 0.9 | 0.00 | 0.00 | 0.00 | 76 | 1016.4 |
| 20260502031304 | 47 | 121 | 1.7 | 1.7 | 0.00 | 0.00 | 0.00 | 77 | 1016.4 |
| 20260502030802 | 47 | 121 | 1.7 | 2.6 | 0.00 | 0.00 | 0.00 | 76 | 1016.3 |
| 20260502030259 | 47 | 156 | 0.9 | 1.7 | 0.00 | 0.00 | 0.00 | 75 | 1016.3 |
| 20260502025757 | 48 | 90 | 0.9 | 0.9 | 0.00 | 0.00 | 0.00 | 75 | 1016.3 |
| 20260502025255 | 48 | 137 | 1.7 | 2.6 | 0.00 | 0.00 | 0.00 | 76 | 1016.3 |
| 20260502024752 | 48 | 81 | 0.0 | 0.0 | 0.00 | 0.00 | 0.00 | 76 | 1016.3 |
| 20260502024250 | 48 | 95 | 0.9 | 0.9 | 0.00 | 0.00 | 0.00 | 75 | 1016.2 |
| 20260502023748 | 48 | 35 | 0.9 | 1.7 | 0.00 | 0.00 | 0.00 | 74 | 1016.2 |
| 20260502023245 | 48 | 79 | 0.0 | 0.0 | 0.00 | 0.00 | 0.00 | 75 | 1016.2 |
| 20260502022743 | 48 | 82 | 0.0 | 0.9 | 0.00 | 0.00 | 0.00 | 74 | 1016.0 |
| 20260502022239 | 48 | 112 | 0.0 | 0.0 | 0.00 | 0.00 | 0.00 | 74 | 1015.7 |
| 20260502021736 | 48 | 74 | 0.0 | 0.9 | 0.00 | 0.00 | 0.00 | 74 | 1016.0 |
| 20260502021233 | 48 | 74 | 1.7 | 1.7 | 0.00 | 0.00 | 0.00 | 73 | 1016.2 |
| 20260502020730 | 48 | 133 | 0.0 | 0.9 | 0.00 | 0.00 | 0.00 | 73 | 1015.6 |
| 20260502020227 | 48 | 91 | 0.9 | 0.9 | 0.00 | 0.00 | 0.00 | 72 | 1015.6 |
| 20260502015726 | 48 | 81 | 0.0 | 0.9 | 0.00 | 0.00 | 0.00 | 74 | 1015.6 |
| 20260502015221 | 48 | 52 | 0.0 | 0.0 | 0.00 | 0.00 | 0.00 | 73 | 1015.4 |
| 20260502014719 | 48 | 292 | 1.7 | 1.7 | 0.00 | 0.00 | 0.00 | 73 | 1015.4 |
| 20260502014216 | 49 | 77 | 0.0 | 0.0 | 0.00 | 0.00 | 0.00 | 73 | 1015.3 |
| 20260502013712 | 49 | 85 | 0.0 | 0.0 | 0.00 | 0.00 | 0.00 | 73 | 1015.4 |
| 20260502013207 | 48 | 350 | 0.9 | 0.9 | 0.00 | 0.00 | 0.00 | 72 | 1015.2 |
| 20260502012705 | 49 | 111 | 1.7 | 1.7 | 0.00 | 0.00 | 0.00 | 73 | 1015.2 |
| 20260502012203 | 49 | 106 | 0.9 | 0.9 | 0.00 | 0.00 | 0.00 | 71 | 1014.9 |
| 20260502011659 | 49 | 65 | 0.9 | 1.7 | 0.00 | 0.00 | 0.00 | 72 | 1014.8 |
| 20260502011155 | 49 | 64 | 0.9 | 0.9 | 0.00 | 0.00 | 0.00 | 72 | 1014.9 |
| 20260502010653 | 49 | 323 | 1.7 | 2.6 | 0.00 | 0.00 | 0.00 | 70 | 1015.0 |
| 20260502010149 | 50 | 100 | 0.9 | 0.9 | 0.00 | 0.00 | 0.00 | 71 | 1014.8 |
| 20260502005646 | 50 | 28 | 3.5 | 5.2 | 0.00 | 0.00 | 0.00 | 70 | 1014.8 |
| 20260502005144 | 50 | 332 | 3.5 | 5.2 | 0.00 | 0.00 | 0.00 | 70 | 1014.7 |
| 20260502004640 | 50 | 90 | 0.9 | 1.7 | 0.00 | 0.00 | 0.00 | 71 | 1014.6 |
| 20260502004137 | 50 | 114 | 0.0 | 0.9 | 0.00 | 0.00 | 0.00 | 73 | 1014.3 |
| 20260502003635 | 50 | 305 | 1.7 | 1.7 | 0.00 | 0.00 | 0.00 | 73 | 1014.4 |
| 20260502003132 | 50 | 113 | 1.7 | 1.7 | 0.00 | 0.00 | 0.00 | 73 | 1014.3 |
| 20260502002627 | 51 | 122 | 0.9 | 0.9 | 0.00 | 0.00 | 0.00 | 73 | 1014.1 |
| 20260502002125 | 51 | 132 | 0.9 | 1.7 | 0.00 | 0.00 | 0.00 | 73 | 1014.0 |
| 20260502001623 | 51 | 249 | 2.6 | 2.6 | 0.00 | 0.00 | 0.00 | 73 | 1013.9 |
| 20260502001120 | 51 | 353 | 0.9 | 0.9 | 0.00 | 0.00 | 0.00 | 72 | 1013.9 |
| 20260502000618 | 51 | 263 | 2.6 | 3.5 | 0.00 | 0.00 | 0.00 | 73 | 1013.6 |
| 20260502000115 | 51 | 133 | 1.7 | 3.5 | 0.00 | 0.00 | 0.00 | 74 | 1013.6 |
| 20260501235611 | 51 | 150 | 1.7 | 1.7 | 0.00 | 0.00 | 0.00 | 73 | 1013.6 |
| 20260501235107 | 51 | 299 | 3.5 | 5.2 | 0.00 | 0.00 | 0.00 | 72 | 1013.4 |
| 20260501234602 | 52 | 58 | 0.0 | 0.9 | 0.00 | 0.00 | 0.00 | 73 | 1013.6 |
| 20260501234100 | 52 | 283 | 2.6 | 3.5 | 0.00 | 0.00 | 0.00 | 72 | 1013.3 |
| 20260501233558 | 52 | 65 | 0.0 | 0.0 | 0.00 | 0.00 | 0.00 | 72 | 1013.1 |
| 20260501233055 | 52 | 180 | 1.7 | 2.6 | 0.00 | 0.00 | 0.00 | 71 | 1013.0 |
| 20260501232551 | 53 | 90 | 1.7 | 1.7 | 0.00 | 0.00 | 0.00 | 71 | 1012.9 |
| 20260501232049 | 53 | 67 | 0.9 | 2.6 | 0.00 | 0.00 | 0.00 | 71 | 1013.0 |
| 20260501231546 | 53 | 67 | 0.9 | 0.9 | 0.00 | 0.00 | 0.00 | 71 | 1012.9 |
| 20260501231044 | 53 | 11 | 4.3 | 6.1 | 0.00 | 0.00 | 0.00 | 70 | 1012.9 |
| 20260501230543 | 53 | 111 | 0.9 | 0.9 | 0.00 | 0.00 | 0.00 | 69 | 1012.7 |
| 20260501230040 | 54 | 86 | 0.0 | 0.9 | 0.00 | 0.00 | 0.00 | 68 | 1012.8 |
| 20260501225538 | 54 | 99 | 0.9 | 1.7 | 0.00 | 0.00 | 0.00 | 67 | 1012.9 |
| 20260501225034 | 55 | 87 | 0.9 | 1.7 | 0.00 | 0.00 | 0.00 | 65 | 1013.0 |
| 20260501224532 | 55 | 225 | 3.5 | 5.2 | 0.00 | 0.00 | 0.00 | 64 | 1012.9 |
| 20260501224028 | 55 | 11 | 1.7 | 1.7 | 0.00 | 0.00 | 0.00 | 62 | 1012.7 |
| 20260501223525 | 56 | 160 | 1.7 | 1.7 | 0.00 | 0.00 | 0.00 | 60 | 1012.6 |
| 20260501223021 | 57 | 357 | 5.2 | 7.8 | 0.00 | 0.00 | 0.00 | 58 | 1012.6 |
| 20260501222517 | 57 | 277 | 3.5 | 3.5 | 0.00 | 0.00 | 0.00 | 56 | 1012.4 |
| 20260501222014 | 58 | 23 | 3.5 | 6.1 | 0.00 | 0.00 | 0.00 | 55 | 1012.1 |
| 20260501221510 | 59 | 86 | 3.5 | 3.5 | 0.00 | 0.00 | 0.00 | 51 | 1012.0 |
| 20260501221009 | 60 | 55 | 3.5 | 5.2 | 0.00 | 0.00 | 0.00 | 47 | 1011.9 |
| 20260501220506 | 60 | 98 | 1.7 | 3.5 | 0.00 | 0.00 | 0.00 | 46 | 1011.8 |
| 20260501220003 | 60 | 13 | 1.7 | 2.6 | 0.00 | 0.00 | 0.00 | 45 | 1011.8 |
| 20260501215459 | 61 | 249 | 3.5 | 6.1 | 0.00 | 0.00 | 0.00 | 45 | 1012.0 |
| 20260501214954 | 61 | 2 | 3.5 | 6.1 | 0.00 | 0.00 | 0.00 | 43 | 1011.8 |
| 20260501214450 | 61 | 232 | 1.7 | 2.6 | 0.00 | 0.00 | 0.00 | 43 | 1011.9 |
| 20260501213945 | 62 | 292 | 5.2 | 6.1 | 0.00 | 0.00 | 0.00 | 44 | 1011.9 |
| 20260501213443 | 61 | 6 | 5.2 | 7.0 | 0.00 | 0.00 | 0.00 | 44 | 1011.8 |
| 20260501212938 | 61 | 325 | 7.0 | 7.8 | 0.00 | 0.00 | 0.00 | 41 | 1011.7 |
| 20260501212435 | 61 | 247 | 2.6 | 5.2 | 0.00 | 0.00 | 0.00 | 46 | 1011.6 |
| 20260501211932 | 61 | 299 | 1.7 | 1.7 | 0.00 | 0.00 | 0.00 | 41 | 1011.7 |
| 20260501211430 | 61 | 334 | 1.7 | 3.5 | 0.00 | 0.00 | 0.00 | 40 | 1011.6 |
| 20260501210927 | 61 | 41 | 7.8 | 12.2 | 0.00 | 0.00 | 0.00 | 39 | 1011.4 |
| 20260501210423 | 62 | 282 | 3.5 | 3.5 | 0.00 | 0.00 | 0.00 | 39 | 1011.5 |
| 20260501205920 | 64 | 333 | 6.1 | 8.7 | 0.00 | 0.00 | 0.00 | 38 | 1011.3 |
| 20260501205417 | 65 | 261 | 6.1 | 9.6 | 0.00 | 0.00 | 0.00 | 40 | 1011.6 |
| 20260501204914 | 64 | 323 | 10.4 | 12.2 | 0.00 | 0.00 | 0.00 | 37 | 1011.6 |
| 20260501204410 | 63 | 281 | 3.5 | 6.1 | 0.00 | 0.00 | 0.00 | 39 | 1011.7 |
| 20260501203906 | 66 | 1 | 7.0 | 7.8 | 0.00 | 0.00 | 0.00 | 38 | 1011.8 |
| 20260501203403 | 64 | 359 | 7.0 | 8.7 | 0.00 | 0.00 | 0.00 | 37 | 1011.6 |
| 20260501202901 | 66 | 75 | 0.9 | 0.9 | 0.00 | 0.00 | 0.00 | 39 | 1011.6 |
| 20260501202357 | 64 | 162 | 1.7 | 3.5 | 0.00 | 0.00 | 0.00 | 38 | 1011.6 |
| 20260501201854 | 64 | 168 | 0.9 | 0.9 | 0.00 | 0.00 | 0.00 | 42 | 1011.5 |
| 20260501201351 | 66 | 122 | 0.0 | 0.9 | 0.00 | 0.00 | 0.00 | 39 | 1011.4 |
| 20260501200847 | 64 | 227 | 3.5 | 3.5 | 0.00 | 0.00 | 0.00 | 35 | 1011.6 |
| 20260501200345 | 64 | 66 | 0.9 | 2.6 | 0.00 | 0.00 | 0.00 | 38 | 1011.4 |
| 20260501195843 | 64 | 257 | 1.7 | 1.7 | 0.00 | 0.00 | 0.00 | 40 | 1011.7 |
| 20260501195338 | 63 | 224 | 7.0 | 7.8 | 0.00 | 0.00 | 0.00 | 35 | 1011.5 |
| 20260501194834 | 64 | 152 | 4.3 | 6.1 | 0.00 | 0.00 | 0.00 | 35 | 1011.5 |
| 20260501194330 | 65 | 255 | 5.2 | 7.8 | 0.00 | 0.00 | 0.00 | 33 | 1011.7 |
| 20260501193827 | 64 | 285 | 7.8 | 8.7 | 0.00 | 0.00 | 0.00 | 35 | 1011.7 |
| 20260501193326 | 64 | 268 | 5.2 | 6.1 | 0.00 | 0.00 | 0.00 | 37 | 1011.8 |
| 20260501192823 | 66 | 200 | 3.5 | 3.5 | 0.00 | 0.00 | 0.00 | 36 | 1011.7 |
| 20260501192320 | 66 | 83 | 1.7 | 1.7 | 0.00 | 0.00 | 0.00 | 39 | 1012.0 |
| 20260501191816 | 65 | 95 | 0.9 | 0.9 | 0.00 | 0.00 | 0.00 | 38 | 1012.2 |
| 20260501191314 | 65 | 166 | 5.2 | 8.7 | 0.00 | 0.00 | 0.00 | 33 | 1012.0 |
| 20260501190810 | 65 | 309 | 2.6 | 5.2 | 0.00 | 0.00 | 0.00 | 35 | 1012.1 |
| 20260501190306 | 65 | 209 | 6.1 | 8.7 | 0.00 | 0.00 | 0.00 | 32 | 1012.1 |
| 20260501185756 | 65 | 104 | 3.5 | 7.8 | 0.00 | 0.00 | 0.00 | 31 | 1012.1 |
| 20260501185252 | 65 | 159 | 0.9 | 1.7 | 0.00 | 0.00 | 0.00 | 31 | 1011.9 |
| 20260501184748 | 65 | 167 | 3.5 | 5.2 | 0.00 | 0.00 | 0.00 | 29 | 1012.3 |
| 20260501184244 | 65 | 269 | 4.3 | 7.8 | 0.00 | 0.00 | 0.00 | 34 | 1012.2 |
| 20260501183741 | 65 | 176 | 2.6 | 2.6 | 0.00 | 0.00 | 0.00 | 30 | 1012.2 |